contact:dominique.lefevre@mio.osupytheas.fr, maurice.libes@osupytheas.fr
Project:EMSO Ligure-ouest http://www.emso-fr.org/EMSO-France
Sensor Aquadopp, line 13 Serial AQD14315 
DOI : "https://doi.org/10.17882/74513; https://doi.org/10.17882/83244" 
Title:EMSO Ligure Ouest : Data ligne ALBATROSS capteur AQUADOPP - deploiement 2021
Id,Date,Profondeur,Latitude,Longitude,X_East,Y_North,Z_Up,Amplitude_X,Amplitude_Y,Amplitude_Z,Batterie,SoundSpeed,Heading,Pitch,Roll,Pressure,Temperature,Speed,Direction
, , m, degrees North, degrees East, m.s-1, m.s-1,m.s-1, 1, 1, 1, Volt, m.s-1, degree, degree, degree, dbar, degree_C, m.s-1, degree
11,2022-02-25T22:00:00,2200.0,42.79,6.0312,-0.009,0.014,0.009,58.0,58.0,57.0,12.3,1504.2,314.5,-0.7,0.0,2192.823,13.16,0.016,327.3
11,2022-02-25T22:30:00,2200.0,42.79,6.0312,-0.005,0.016,-0.008,59.0,61.0,60.0,12.3,1504.2,313.9,-0.8,0.0,2192.859,13.16,0.016,342.6
11,2022-02-25T23:00:00,2200.0,42.79,6.0312,-0.014,0.007,-0.004,60.0,58.0,60.0,12.3,1504.2,310.6,-0.7,-0.4,2192.843,13.16,0.015,296.6
11,2022-02-25T23:30:00,2200.0,42.79,6.0312,-0.021,0.004,0.024,58.0,60.0,58.0,12.2,1504.2,310.4,-0.6,-0.4,2192.85,13.16,0.021,280.8
11,2022-02-26T00:00:00,2200.0,42.79,6.0312,-0.021,0.002,0.002,56.0,60.0,61.0,12.3,1504.2,307.8,-0.6,-0.4,2192.851,13.16,0.021,275.4
11,2022-02-26T00:30:00,2200.0,42.79,6.0312,-0.015,0.005,0.006,57.0,59.0,60.0,12.3,1504.2,309.8,-0.9,-0.1,2192.841,13.16,0.015,288.4
11,2022-02-26T01:00:00,2200.0,42.79,6.0312,-0.023,-0.005,-0.007,57.0,61.0,61.0,12.3,1504.2,309.3,-0.4,-0.4,2192.901,13.16,0.023,257.7
11,2022-02-26T01:30:00,2200.0,42.79,6.0312,-0.039,-0.001,0.005,58.0,59.0,62.0,12.3,1504.2,309.6,-0.5,-0.3,2192.889,13.16,0.039,268.5
11,2022-02-26T02:00:00,2200.0,42.79,6.0312,-0.042,0.005,0.012,55.0,61.0,60.0,12.2,1504.2,301.2,-0.7,-0.3,2192.925,13.16,0.042,276.8
11,2022-02-26T02:30:00,2200.0,42.79,6.0312,-0.059,0.003,0.008,58.0,60.0,61.0,12.3,1504.2,303.8,-0.6,-0.3,2192.972,13.16,0.059,272.9
11,2022-02-26T03:00:00,2200.0,42.79,6.0312,-0.04,-0.005,0.005,57.0,61.0,63.0,12.3,1504.2,290.5,-0.7,-0.2,2192.965,13.16,0.04,262.9
11,2022-02-26T03:30:00,2200.0,42.79,6.0312,-0.039,0.028,0.005,59.0,61.0,62.0,12.3,1504.2,308.8,-0.8,0.0,2192.92,13.16,0.048,305.7
11,2022-02-26T04:00:00,2200.0,42.79,6.0312,-0.049,0.025,0.001,56.0,61.0,63.0,12.3,1504.2,301.7,-0.6,-0.2,2192.951,13.16,0.055,297.0
11,2022-02-26T04:30:00,2200.0,42.79,6.0312,-0.056,0.018,0.006,59.0,61.0,64.0,12.3,1504.2,297.6,-0.9,-0.1,2193.037,13.16,0.058,287.8
11,2022-02-26T05:00:00,2200.0,42.79,6.0312,-0.042,0.019,-0.011,58.0,59.0,59.0,12.3,1504.2,305.8,-0.4,-0.3,2193.006,13.16,0.046,294.3
11,2022-02-26T05:30:00,2200.0,42.79,6.0312,-0.042,0.029,0.013,58.0,60.0,59.0,12.3,1504.2,298.5,-0.4,0.0,2192.991,13.16,0.051,304.6
11,2022-02-26T06:00:00,2200.0,42.79,6.0312,-0.031,0.028,0.013,55.0,60.0,62.0,12.3,1504.2,306.5,-0.7,0.0,2192.949,13.16,0.041,312.1
11,2022-02-26T06:30:00,2200.0,42.79,6.0312,-0.046,0.02,0.01,58.0,60.0,61.0,12.3,1504.2,296.4,-0.7,0.0,2192.885,13.16,0.05,293.5
11,2022-02-26T07:00:00,2200.0,42.79,6.0312,-0.027,0.032,-0.003,57.0,61.0,63.0,12.2,1504.2,301.4,-0.7,-0.2,2192.934,13.16,0.041,319.8
11,2022-02-26T07:30:00,2200.0,42.79,6.0312,-0.021,0.041,0.018,57.0,62.0,58.0,12.3,1504.2,308.2,-0.6,-0.3,2192.938,13.16,0.046,332.9
11,2022-02-26T08:00:00,2200.0,42.79,6.0312,-0.009,0.031,0.011,58.0,62.0,63.0,12.3,1504.2,302.9,-0.5,-0.1,2192.956,13.16,0.032,343.8
11,2022-02-26T08:30:00,2200.0,42.79,6.0312,-0.018,0.036,0.006,59.0,61.0,62.0,12.3,1504.2,303.3,-0.5,-0.2,2192.892,13.16,0.04,333.4
11,2022-02-26T09:00:00,2200.0,42.79,6.0312,-0.016,0.027,0.011,60.0,63.0,63.0,12.3,1504.2,299.4,-0.6,-0.4,2192.922,13.16,0.031,329.3
11,2022-02-26T09:30:00,2200.0,42.79,6.0312,-0.023,0.026,0.004,59.0,62.0,64.0,12.3,1504.2,302.7,-0.6,-0.4,2192.901,13.16,0.034,318.5
11,2022-02-26T10:00:00,2200.0,42.79,6.0312,-0.014,0.025,0.003,59.0,60.0,65.0,12.3,1504.2,302.9,-0.6,-0.3,2192.869,13.16,0.028,330.7
11,2022-02-26T10:30:00,2200.0,42.79,6.0312,-0.008,0.022,-0.008,59.0,62.0,63.0,12.3,1504.2,306.7,-0.7,0.0,2192.858,13.16,0.023,340.0
11,2022-02-26T11:00:00,2200.0,42.79,6.0312,-0.002,0.016,0.0,59.0,61.0,64.0,12.3,1504.2,306.2,-0.4,-0.3,2192.854,13.16,0.016,352.9
11,2022-02-26T11:30:00,2200.0,42.79,6.0312,-0.008,0.017,-0.001,58.0,62.0,65.0,12.2,1504.2,303.9,-0.6,0.0,2192.91,13.16,0.018,334.8
11,2022-02-26T12:00:00,2200.0,42.79,6.0312,-0.003,0.022,-0.005,60.0,63.0,62.0,12.2,1504.2,304.0,-0.4,-0.1,2192.847,13.16,0.022,352.2
11,2022-02-26T12:30:00,2200.0,42.79,6.0312,-0.017,0.021,0.028,61.0,61.0,63.0,12.3,1504.2,304.8,-0.4,-0.3,2192.82,13.16,0.027,321.0
11,2022-02-26T13:00:00,2200.0,42.79,6.0312,-0.007,0.005,-0.002,59.0,61.0,65.0,12.3,1504.2,302.7,-0.5,-0.1,2192.841,13.16,0.008,305.5
11,2022-02-26T13:30:00,2200.0,42.79,6.0312,-0.004,0.016,0.009,60.0,62.0,63.0,12.3,1504.2,299.3,-0.4,0.0,2192.913,13.16,0.016,346.0
11,2022-02-26T14:00:00,2200.0,42.79,6.0312,-0.008,-0.001,0.008,60.0,60.0,63.0,12.2,1504.2,299.3,-0.8,-0.1,2192.885,13.16,0.008,262.9
11,2022-02-26T14:30:00,2200.0,42.79,6.0312,-0.004,0.0,0.014,59.0,58.0,63.0,12.2,1504.2,300.4,-0.5,-0.4,2192.874,13.16,0.004,270.0
11,2022-02-26T15:00:00,2200.0,42.79,6.0312,-0.002,-0.005,0.009,57.0,60.0,62.0,12.2,1504.2,294.5,-0.6,-0.4,2192.889,13.16,0.005,201.8
11,2022-02-26T15:30:00,2200.0,42.79,6.0312,-0.012,-0.001,0.013,63.0,64.0,65.0,12.2,1504.2,292.2,-0.5,-0.1,2192.943,13.16,0.012,265.2
11,2022-02-26T16:00:00,2200.0,42.79,6.0312,-0.021,0.005,0.008,60.0,62.0,61.0,12.3,1504.2,292.0,-0.7,-0.2,2192.911,13.16,0.021,283.4
11,2022-02-26T17:00:00,2200.0,42.79,6.0312,-0.011,-0.007,0.006,58.0,64.0,64.0,12.3,1504.2,288.3,-1.0,0.0,2192.912,13.16,0.013,237.5
11,2022-02-26T17:30:00,2200.0,42.79,6.0312,-0.021,-0.011,0.002,59.0,61.0,65.0,12.3,1504.2,286.2,-0.9,0.0,2192.922,13.16,0.023,242.4
11,2022-02-26T18:00:00,2200.0,42.79,6.0312,-0.034,-0.003,0.003,59.0,61.0,62.0,12.2,1504.2,289.3,-0.5,-0.3,2192.874,13.16,0.034,265.0
11,2022-02-26T18:30:00,2200.0,42.79,6.0312,-0.023,-0.015,0.004,56.0,60.0,61.0,12.2,1504.2,284.5,-0.9,-0.3,2192.87,13.16,0.027,236.9
11,2022-02-26T19:00:00,2200.0,42.79,6.0312,-0.043,-0.008,0.007,57.0,61.0,63.0,12.2,1504.2,291.2,-0.4,-0.2,2192.882,13.16,0.043,259.5
11,2022-02-26T19:30:00,2200.0,42.79,6.0312,-0.039,-0.016,-0.009,58.0,59.0,61.0,12.2,1504.2,286.3,-1.0,-0.4,2192.829,13.16,0.042,247.7
11,2022-02-26T20:00:00,2200.0,42.79,6.0312,-0.033,0.004,-0.002,57.0,60.0,60.0,12.3,1504.2,294.3,-0.7,-0.1,2192.829,13.16,0.033,276.9
11,2022-02-26T20:30:00,2200.0,42.79,6.0312,-0.038,-0.002,0.003,58.0,61.0,61.0,12.2,1504.2,295.6,-0.6,-0.3,2192.847,13.16,0.038,267.0
11,2022-02-26T21:00:00,2200.0,42.79,6.0312,-0.034,-0.011,0.0,57.0,60.0,60.0,12.2,1504.2,296.5,-0.6,-0.1,2192.836,13.16,0.035,252.1
